Terug naar catalogus

FREGAT DEB

LostUNKNOWN
NORAD 45646·DEBRIS·🇷🇺 Russia

Gelanceerd Jul 18, 2011 vanaf Baikonur Cosmodrome

Loading…

Volgende Passages (komende 24 uur)

TLE

VerouderdSource: Space-Track

Epoch: Jun 25, 2020, 16:30 UTC

1 45646U 11037AN  20177.68769722  .00113570  00000-0  72266-1 0  9992
2 45646  51.2371 324.7767 1508996  94.1129 283.2277 11.71807274  3233

Volg FREGAT DEB in realtime met AllMySat

Download on the App Store